Location: Aalen
(48.8330°N, 10.1000°E)
Time: 17:13:55
(UTC+02:00)

Transit 4A - Pass Details

Date: 06 August 2021
Orbit: 871 x 974 km, 66.8° (Epoch: 16 September)

Event Time Altitude Azimuth Distance (km) Brightness Sun altitude
Rises 06:42:36 0° 324° (NW) 3,471 10.7 5.6°
Reaches altitude 10° 06:45:32 10° 338° (NNW) 2,535 10.2 6.1°
Maximum altitude 06:50:20 25° 33° (NNE) 1,696 10.2 6.8°
Drops below altitude 10° 06:55:10 10° 88° (E) 2,563 12.2 7.6°
Sets 06:58:09 0° 101° (E) 3,517 12.2 8.1°
